This is the latest recevied weather packets stored in our database for station/object EA2KR-10. If no packets are shown the sender has not sent any weather packets the latest 10 day(s).
| Time | Temp. | Humidity | Pressure | Rain* | Wind** | Luminosity | Snow |
|---|---|---|---|---|---|---|---|
| 1777908458 | 15° C | 63% | 1022.6 hPa | - | - | - | - |
| 1777906804 | 17.78° C | 61% | 1022.7 hPa | - | - | - | - |
| 1777904821 | 18.33° C | 62% | 1023.1 hPa | - | - | - | - |
| 1777900539 | 12.22° C | 69% | 1023.3 hPa | - | - | - | - |
| 1777898739 | 12.22° C | 68% | 1023.7 hPa | - | - | - | - |
| 1777896938 | 12.78° C | 69% | 1023.4 hPa | - | - | - | - |
| 1777895138 | 13.33° C | 68% | 1022.3 hPa | - | - | - | - |
| 1777893340 | 13.89° C | 67% | 1022.6 hPa | - | - | - | - |
| 1777891540 | 15.56° C | 64% | 1023.1 hPa | - | - | - | - |
| 1777889740 | 21.11° C | 59% | 1022.6 hPa | - | - | - | - |
| 1777887940 | 20.56° C | 62% | 1023 hPa | - | - | - | - |
| 1777886140 | 15.56° C | 69% | 1023.3 hPa | - | - | - | - |
| 1777884339 | 15.56° C | 68% | 1023.3 hPa | - | - | - | - |
| 1777882539 | 16.67° C | 66% | 1023.1 hPa | - | - | - | - |
| 1777880739 | 15.56° C | 67% | 1023 hPa | - | - | - | - |
| 1777878939 | 15° C | 68% | 1023 hPa | - | - | - | - |
| 1777877139 | 15° C | 69% | 1022.9 hPa | - | - | - | - |
| 1777875339 | 15° C | 68% | 1022.7 hPa | - | - | - | - |
| 1777873539 | 15° C | 68% | 1022.7 hPa | - | - | - | - |
| 1777871739 | 15° C | 68% | 1022.5 hPa | - | - | - | - |
| 1777869939 | 15° C | 69% | 1022.5 hPa | - | - | - | - |
| 1777868139 | 15° C | 68% | 1022.6 hPa | - | - | - | - |
| 1777866339 | 15° C | 69% | 1022.7 hPa | - | - | - | - |
| 1777864539 | 15° C | 69% | 1022.9 hPa | - | - | - | - |
| 1777862738 | 15° C | 69% | 1022.9 hPa | - | - | - | - |
* Rain since midnight (hover to see other rain measurements)
** Current wind speed in m/s (hover to see current wind gust speed)